Regional Weather Roundup
Issued by NWS Cleveland, OH

Home | Current Version | Previous Version | Graphics & Text | Print | Product List | Glossary On
Versions: 1 2 3 4 5 6 7 8 9 10 11 12 13 14 15 16 17 18 19 20 21 22 23 24 25 26 27 28 29 30 31 32 33 34 35 36 37 38 39 40 41 42 43 44 45 46 47 48 49 50
000
ASUS41 KCLE 020410
RWRCLE
OHIO REGIONAL WEATHER ROUNDUP
NATIONAL WEATHER SERVICE WILMINGTON, OH
1200 AM EDT THU OCT 02 2014

NOTE: "FAIR" INDICATES FEW OR NO CLOUDS BELOW 12,000 FEET WITH NO
SIGNIFICANT WEATHER AND/OR OBSTRUCTIONS TO VISIBILITY.

OHZ001>008-015>018-024>027-034-035-043-044-020500-
   NORTHWEST OHIO

CITY           SKY/WX    TMP DP  RH WIND       PRES   REMARKS
DEFIANCE       CLEAR     53  49  86 E5        30.03S
FINDLAY        CLEAR     54  50  86 E5        30.03R
TOLEDO EXPRESS CLEAR     52  52 100 CALM      30.04R FOG
TOLEDO METCALF CLEAR     55  53  93 E5        30.04S FOG
LIMA           CLEAR     52  47  83 E6        30.04R
$$

OHZ009>014-019>023-028>033-038-089-020500-
   NORTHEAST OHIO

CITY           SKY/WX    TMP DP  RH WIND       PRES   REMARKS
CLE-HOPKINS    PTCLDY    55  54  96 S6        30.06S FOG
CLE-LAKEFRONT  CLEAR     60  57  89 SE6       30.04R FOG
CUY CO. ARPT   NOT AVBL
LORAIN-ELYRIA  FOG       58  54  86 S3        30.05S VSB 1/4
ASHTABULA      FOG       53  52  96 CALM      30.06F VSB 1/4
AKRON-CANTON   CLEAR     55  51  86 CALM      30.06S FOG
WOOSTER        FOG       47  45  93 CALM      30.06S VSB 1/4
MANSFIELD      PTCLDY    49  49 100 SE3       30.05S FOG
YOUNGSTOWN     PTCLDY    51  51 100 CALM      30.06S FOG
$$

OHZ042-051>053-060>062-070>072-077>081-020500-
  SOUTHWEST OHIO

CITY           SKY/WX    TMP DP  RH WIND       PRES   REMARKS
CINC-COVINGTON PTCLDY    64  50  60 CALM      30.01S
CINC-LUNKEN    CLEAR     54  53  97 CALM      30.02F
HAMILTON       CLEAR     52  50  93 CALM      30.02F
DAYTON         CLEAR     57  49  74 E5        30.03S
WRIGHT-PAT AFB CLEAR     54  50  85 VRB1      30.03S
DAYTON GENERAL CLEAR     56  48  74 E5        30.02S
WILMINGTON     CLEAR     54  44  69 SE7       30.03S
$$

OHZ036-037-039>041-045>050-054>059-063>069-073>076-082>088-020500-
  CENTRAL AND SOUTHEAST OHIO

CITY           SKY/WX    TMP DP  RH WIND       PRES   REMARKS
COLUMBUS       CLEAR     54  50  86 CALM      30.04S
OSU AIRPORT    CLEAR     53  50  89 CALM      30.04S
BOLTON FIELD   CLEAR     52  52  99 CALM      30.05S FOG
RICKENBACK AFB CLEAR     53  50  89 NE3       30.03S
NEWARK         FOG       45  44  97 CALM      30.05S VSB 1/4
MARION         CLEAR     50  49  96 S3        30.05R FOG
LANCASTER      CLEAR     47  45  93 CALM      30.05S FOG
ZANESVILLE     PTCLDY    49  47  93 CALM      30.05S FOG
NEW PHILLY     FOG       52  51  97 CALM      30.07R VSB 1/4
$$



USA.gov is the U.S. government's official web portal to all federal, state and local government web resources and services.